User: anonymous   Login
Location: Salamanca
(40.9670°N, 5.6500°W)
Time: 09:56:50
(UTC+01:00)
Language:

Cosmos 1633 Rocket - Orbit

View from above orbital plane
View from above orbital plane
View from above satellite
View from above satellite

Ground track
Ground track

The orbit data is extracted from the following two-line orbital elements,

1 15593U 85020B   17057.96002828  .00000100  00000-0  90012-5 0  9991
2 15593  82.5401   5.8011 0012872  49.1234  16.4321 14.84259694728021
Epoch (UTC): 26 February 2017 23:02:26
Eccentricity: 0.0012872
inclination: 82.5401°
perigee height: 607 km
apogee height: 625 km
right ascension of ascending node: 5.8011°
argument of perigee: 49.1234°
revolutions per day: 14.84259694
mean anomaly at epoch: 16.4321°
orbit number at epoch: 72802

The dashed part of the orbit path shows where the satellite is in the earth's shadow,  

DLR